Weather History for Santa Monica, CA

Change the Weather History Date:

Monday, January 16, 2012

  Actual Average Record
Temperature  
Mean Temperature 54 °F -  
Max Temperature 57 °F 67 °F 88 °F (1961)
Min Temperature 48 °F 47 °F 28 °F (1947)
Degree Days  
Heating Degree Days 12    
Growing Degree Days 4 (Base 50)    
Moisture  
Dew Point 43 °F    
Average Humidity 72    
Maximum Humidity 83    
Minimum Humidity 57    
Precipitation  
Precipitation 0.00 in - - ()
Sea Level Pressure  
Sea Level Pressure 30.14 in    
Wind  
Wind Speed 2 mph (SE)    
Max Wind Speed 9 mph    
Max Gust Speed -    
Visibility 10 miles    
Events      
Averages and records for this station are not official NWS values.
T = Trace of Precipitation, MM = Missing Value Source: NWS Daily Summary

Daily Weather History Graph

Daily Weather History Graph

Search for Another Location

Airport:

Trip Planner

Search our weather history database for the weather conditions in past years. The results will help you decide how hot, cold, wet, or windy it might be!

Date:

Astronomy

Jan. 16, 2012 Rise Set
Actual Time 6:58 AM PST 5:08 PM PST
Civil Twilight 6:31 AM PST 5:35 PM PST
Nautical Twilight 6:01 AM PST 6:06 PM PST
Astronomical Twilight 5:31 AM PST 6:36 PM PST
Moon 12:18 AM PST (1/16) 11:21 AM PST (1/16)
Length of Visible Light 11h 03m
Length of Day
10h 09m
Last Quarter, 45% of the Moon is Illuminated
Jan 16
Last Quarter
Jan 22
New
Jan 30
First Quarter
Feb 7
Full
Feb 14
Last Quarter

Hourly Weather History & Observations

Time (PST) Temp. Dew Point Humidity Pressure Visibility Wind Dir Wind Speed Gust Speed Precip Events Conditions
12:51 AM 53.1 °F 44.1 °F 71% 30.12 in 10.0 mi Calm Calm - N/A   Mostly Cloudy
1:44 AM 51.8 °F 44.6 °F 76% 30.11 in 10.0 mi Calm Calm - N/A   Mostly Cloudy
1:51 AM 52.0 °F 44.1 °F 74% 30.11 in 10.0 mi Calm Calm - N/A   Mostly Cloudy
2:16 AM 50.0 °F 44.6 °F 82% 30.11 in 10.0 mi Calm Calm - N/A   Scattered Clouds
2:47 AM 50.0 °F 44.6 °F 82% 30.11 in 10.0 mi Calm Calm - N/A   Overcast
2:51 AM 50.0 °F 45.0 °F 83% 30.11 in 10.0 mi Calm Calm - N/A   Overcast
3:13 AM 51.8 °F 44.6 °F 76% 30.10 in 10.0 mi Calm Calm - N/A   Overcast
3:51 AM 50.0 °F 44.1 °F 80% 30.10 in 10.0 mi Calm Calm - N/A   Mostly Cloudy
4:13 AM 50.0 °F 44.6 °F 82% 30.09 in 10.0 mi ENE 3.5 mph - N/A   Mostly Cloudy
4:51 AM 50.0 °F 43.0 °F 77% 30.10 in 10.0 mi Calm Calm - N/A   Overcast
5:01 AM 50.0 °F 42.8 °F 76% 30.10 in 10.0 mi Calm Calm - N/A   Mostly Cloudy
5:51 AM 50.0 °F 44.1 °F 80% 30.10 in 9.0 mi East 4.6 mph - N/A   Mostly Cloudy
6:28 AM 50.0 °F 44.6 °F 82% 30.10 in 9.0 mi Calm Calm - N/A   Overcast
6:51 AM 50.0 °F 44.1 °F 80% 30.11 in 9.0 mi Calm Calm - N/A   Overcast
7:42 AM 51.8 °F 44.6 °F 76% 30.12 in 8.0 mi East 4.6 mph - N/A   Overcast
7:51 AM 52.0 °F 45.0 °F 77% 30.12 in 8.0 mi East 3.5 mph - N/A   Overcast
8:51 AM 54.0 °F 46.9 °F 77% 30.14 in 7.0 mi East 5.8 mph - N/A   Mostly Cloudy
9:03 AM 53.6 °F 46.4 °F 77% 30.14 in 7.0 mi ESE 5.8 mph - N/A   Scattered Clouds
9:47 AM 55.4 °F 46.4 °F 72% 30.16 in 10.0 mi Calm Calm - N/A   Mostly Cloudy
9:51 AM 55.9 °F 46.0 °F 69% 30.16 in 10.0 mi SE 4.6 mph - N/A   Mostly Cloudy
10:47 AM 55.4 °F 44.6 °F 67% 30.16 in 10.0 mi SSW 8.1 mph - N/A   Scattered Clouds
10:51 AM 57.0 °F 44.1 °F 62% 30.15 in 10.0 mi SSW 9.2 mph - N/A   Scattered Clouds
11:51 AM 55.9 °F 43.0 °F 62% 30.14 in 10.0 mi SW 8.1 mph - N/A   Mostly Cloudy
12:51 PM 55.9 °F 42.1 °F 60% 30.12 in 10.0 mi West 4.6 mph - N/A   Clear
1:51 PM 57.0 °F 42.1 °F 57% 30.12 in 10.0 mi Variable 6.9 mph - N/A   Partly Cloudy
2:51 PM 55.0 °F 42.1 °F 62% 30.12 in 10.0 mi Calm Calm - N/A   Clear
3:51 PM 55.0 °F 42.1 °F 62% 30.13 in 10.0 mi SW 4.6 mph - N/A   Clear
5:51 PM 53.1 °F 42.1 °F 66% 30.18 in 10.0 mi Calm Calm - N/A   Clear
7:51 PM 50.0 °F 41.0 °F 71% 30.20 in 10.0 mi Calm Calm - N/A   Mostly Cloudy
8:58 PM 50.0 °F 39.2 °F 66% 30.22 in 10.0 mi Calm Calm - N/A   Mostly Cloudy
9:05 PM 50.0 °F 41.0 °F 71% 30.22 in 10.0 mi East 3.5 mph - N/A   Mostly Cloudy
9:49 PM 50.0 °F 39.2 °F 66% 30.23 in 10.0 mi Calm Calm - N/A   Overcast
9:51 PM 50.0 °F 39.9 °F 68% 30.23 in 10.0 mi Calm Calm - N/A   Overcast
10:25 PM 50.0 °F 39.2 °F 66% 30.23 in 10.0 mi Calm Calm - N/A   Mostly Cloudy
10:51 PM 48.9 °F 39.0 °F 69% 30.23 in 10.0 mi Calm Calm - N/A   Scattered Clouds